QPF
0.00 0.00 0.00 0.00 0.00 0.00 0.00 0.00 0.00 0.00 0.00 0.00 0.00 0.00 0.00 0.01 0.02 0.01 0.00 0.00 0.00 0.00 0.00 0.00 0.00 0.00 0.01 0.04 0.05 0.04 0.05 0.03 0.03 0.02 0.01 0.01 0.02 0.02 0.02 0.02 0.03 0.03 0.01 0.02
0.00 0.00 0.00 0.00 0.00 0.00 0.00 0.00 0.00 0.00 0.00 0.00 0.00 0.00 0.00 0.01 0.02 0.01 0.00 0.00 0.00 0.00 0.01 0.01 0.01 0.01 0.01 0.02 0.02 0.02 0.04 0.04 0.03 0.01 0.01 0.01 0.01 0.01 0.01 0.03 0.03 0.02 0.01 0.02
0.00 0.00 0.00 0.00 0.00 0.00 0.00 0.00 0.00 0.00 0.00 0.00 0.00 0.00 0.00 0.00 0.01 0.01 0.01 0.01 0.00 0.00 0.00 0.01 0.01 0.01 0.01 0.01 0.01 0.02 0.02 0.03 0.02 0.01 0.01 0.01 0.01 0.01 0.01 0.03 0.02 0.02 0.02 0.03
0.00 0.00 0.00 0.00 0.00 0.00 0.00 0.00 0.00 0.00 0.00 0.00 0.01 0.01 0.00 0.00 0.01 0.01 0.01 0.01 0.01 0.01 0.01 0.01 0.00 0.00 0.01 0.01 0.02 0.03 0.03 0.03 0.03 0.02 0.02 0.02 0.01 0.01 0.01 0.02 0.03 0.04 0.04 0.04
0.00 0.00 0.00 0.00 0.00 0.00 0.00 0.00 0.00 0.00 0.00 0.00 0.01 0.01 0.00 0.00 0.01 0.00 0.00 0.01 0.01 0.01 0.00 0.01 0.01 0.01 0.01 0.01 0.01 0.02 0.03 0.02 0.02 0.02 0.02 0.02 0.01 0.01 0.01 0.02 0.04 0.05 0.04 0.04
0.00 0.00 0.00 0.00 0.00 0.00 0.00 0.00 0.00 0.00 0.00 0.00 0.00 0.00 0.01 0.00 0.00 0.00 0.00 0.00 0.01 0.01 0.01 0.01 0.01 0.02 0.03 0.01 0.01 0.01 0.02 0.02 0.02 0.02 0.01 0.02 0.02 0.02 0.02 0.03 0.04 0.04 0.03 0.04
0.00 0.00 0.00 0.00 0.00 0.00 0.00 0.00 0.00 0.00 0.00 0.00 0.00 0.00 0.00 0.00 0.00 0.00 0.00 0.00 0.00 0.01 0.02 0.01 0.02 0.02 0.03 0.02 0.02 0.02 0.03 0.02 0.02 0.02 0.02 0.01 0.02 0.02 0.02 0.03 0.03 0.04 0.03 0.04
0.00 0.00 0.00 0.00 0.00 0.00 0.00 0.00 0.01 0.01 0.00 0.00 0.00 0.00 0.00 0.00 0.00 0.00 0.00 0.00 0.00 0.01 0.01 0.01 0.02 0.03 0.05 0.06 0.04 0.05 0.07 0.05 0.04 0.04 0.02 0.01 0.02 0.02 0.02 0.02 0.03 0.03 0.03 0.03
0.00 0.00 0.00 0.00 0.00 0.00 0.00 0.00 0.00 0.00 0.00 0.00 0.00 0.00 0.00 0.00 0.00 0.00 0.00 0.01 0.01 0.01 0.01 0.02 0.02 0.02 0.04 0.05 0.05 0.05 0.12 0.10 0.08 0.10 0.07 0.04 0.03 0.03 0.02 0.02 0.02 0.02 0.02 0.02
0.00 0.00 0.00 0.00 0.00 0.00 0.00 0.00 0.00 0.00 0.00 0.00 0.00 0.00 0.00 0.00 0.00 0.00 0.01 0.01 0.02 0.02 0.02 0.02 0.02 0.02 0.01 0.01 0.03 0.05 0.08 0.09 0.07 0.09 0.08 0.04 0.04 0.03 0.02 0.02 0.01 0.01 0.01 0.02
0.00 0.00 0.00 0.00 0.00 0.00 0.00 0.00 0.00 0.00 0.00 0.00 0.00 0.00 0.00 0.00 0.00 0.00 0.00 0.01 0.02 0.02 0.03 0.02 0.02 0.02 0.01 0.01 0.02 0.03 0.04 0.05 0.04 0.04 0.05 0.04 0.03 0.02 0.02 0.01 0.01 0.01 0.01 0.02
0.00 0.00 0.00 0.00 0.00 0.00 0.00 0.00 0.00 0.00 0.00 0.00 0.00 0.00 0.00 0.00 0.00 0.00 0.00 0.00 0.01 0.03 0.03 0.04 0.04 0.03 0.02 0.01 0.01 0.02 0.02 0.03 0.04 0.03 0.04 0.04 0.03 0.02 0.01 0.01 0.00 0.00 0.01 0.01
0.00 0.00 0.00 0.00 0.00 0.00 0.00 0.00 0.00 0.00 0.00 0.00 0.00 0.00 0.00 0.00 0.00 0.00 0.00 0.00 0.00 0.01 0.01 0.01 0.02 0.01 0.01 0.01 0.01 0.02 0.02 0.03 0.03 0.02 0.02 0.02 0.02 0.02 0.02 0.01 0.01 0.01 0.01 0.01
0.01 0.00 0.00 0.00 0.00 0.00 0.00 0.00 0.00 0.00 0.00 0.00 0.00 0.00 0.00 0.00 0.00 0.00 0.00 0.00 0.00 0.00 0.00 0.00 0.00 0.00 0.01 0.01 0.01 0.01 0.02 0.02 0.02 0.02 0.01 0.01 0.01 0.02 0.01 0.01 0.01 0.01 0.01 0.01
0.01 0.00 0.00 0.00 0.00 0.00 0.00 0.00 0.00 0.00 0.00 0.00 0.00 0.00 0.00 0.00 0.00 0.00 0.00 0.01 0.01 0.01 0.00 0.00 0.00 0.01 0.01 0.01 0.02 0.02 0.02 0.02 0.01 0.01 0.01 0.01 0.01 0.01 0.01 0.00 0.00 0.01 0.01 0.01
0.00 0.00 0.00 0.00 0.00 0.00 0.00 0.00 0.00 0.00 0.00 0.00 0.00 0.00 0.00 0.00 0.00 0.00 0.00 0.00 0.01 0.00 0.00 0.00 0.01 0.01 0.01 0.02 0.02 0.02 0.02 0.02 0.01 0.01 0.01 0.01 0.01 0.01 0.01 0.01 0.01 0.01 0.01 0.01
0.00 0.00 0.01 0.00 0.00 0.00 0.00 0.00 0.00 0.00 0.00 0.00 0.00 0.00 0.00 0.00 0.00 0.00 0.00 0.00 0.00 0.00 0.01 0.01 0.01 0.01 0.01 0.01 0.01 0.01 0.01 0.01 0.01 0.01 0.01 0.01 0.02 0.01 0.02 0.01 0.01 0.02 0.02 0.01
0.00 0.00 0.01 0.01 0.00 0.00 0.00 0.00 0.00 0.00 0.00 0.00 0.00 0.00 0.00 0.00 0.00 0.00 0.00 0.00 0.01 0.01 0.01 0.00 0.00 0.00 0.00 0.01 0.01 0.00 0.00 0.00 0.00 0.00 0.00 0.01 0.03 0.03 0.03 0.02 0.01 0.02 0.02 0.01
0.00 0.00 0.01 0.00 0.00 0.00 0.00 0.00 0.00 0.00 0.00 0.00 0.00 0.00 0.00 0.01 0.00 0.00 0.00 0.01 0.01 0.01 0.01 0.00 0.00 0.00 0.00 0.00 0.00 0.00 0.00 0.00 0.00 0.00 0.01 0.01 0.01 0.02 0.02 0.01 0.01 0.01 0.01 0.01
0.00 0.00 0.00 0.00 0.00 0.00 0.00 0.00 0.00 0.00 0.00 0.00 0.00 0.01 0.01 0.01 0.01 0.00 0.00 0.00 0.00 0.00 0.01 0.00 0.00 0.00 0.00 0.00 0.00 0.00 0.00 0.00 0.01 0.01 0.01 0.01 0.00 0.01 0.00 0.00 0.01 0.01 0.01 0.01
0.01 0.00 0.00 0.00 0.00 0.00 0.00 0.00 0.00 0.00 0.00 0.00 0.00 0.00 0.00 0.00 0.00 0.00 0.00 0.00 0.00 0.00 0.00 0.00 0.00 0.00 0.00 0.00 0.00 0.00 0.01 0.01 0.01 0.00 0.00 0.00 0.00 0.00 0.00 0.00 0.01 0.01 0.01 0.01
0.01 0.01 0.00 0.00 0.00 0.00 0.00 0.00 0.00 0.00 0.00 0.00 0.00 0.00 0.00 0.00 0.00 0.00 0.00 0.00 0.00 0.00 0.00 0.00 0.00 0.00 0.00 0.00 0.01 0.01 0.01 0.01 0.01 0.00 0.00 0.00 0.00 0.00 0.00 0.00 0.01 0.01 0.01 0.01
0.01 0.01 0.00 0.00 0.01 0.01 0.00 0.00 0.00 0.00 0.00 0.00 0.00 0.00 0.00 0.00 0.00 0.01 0.01 0.01 0.00 0.00 0.00 0.01 0.01 0.00 0.01 0.01 0.01 0.02 0.01 0.01 0.01 0.01 0.01 0.01 0.00 0.00 0.00 0.01 0.01 0.01 0.01 0.01
0.02 0.01 0.01 0.01 0.02 0.02 0.01 0.01 0.00 0.00 0.00 0.00 0.00 0.00 0.00 0.00 0.00 0.01 0.01 0.01 0.00 0.01 0.01 0.01 0.01 0.01 0.02 0.02 0.03 0.04 0.03 0.02 0.02 0.02 0.02 0.02 0.01 0.01 0.01 0.01 0.01 0.01 0.01 0.01
0.04 0.02 0.01 0.01 0.01 0.02 0.01 0.01 0.00 0.00 0.00 0.00 0.00 0.00 0.00 0.00 0.00 0.00 0.01 0.01 0.01 0.01 0.02 0.04 0.04 0.02 0.02 0.02 0.03 0.03 0.03 0.02 0.02 0.01 0.02 0.03 0.03 0.02 0.02 0.01 0.01 0.01 0.01 0.01
0.05 0.05 0.03 0.02 0.02 0.02 0.01 0.01 0.00 0.00 0.00 0.00 0.00 0.00 0.00 0.00 0.00 0.01 0.01 0.01 0.02 0.02 0.02 0.03 0.05 0.05 0.03 0.03 0.03 0.03 0.02 0.01 0.01 0.01 0.02 0.02 0.02 0.02 0.01 0.01 0.01 0.01 0.01 0.01
MSLP
1011.48 1012.34 1013.13 1013.83 1014.43 1014.95 1015.38 1015.73 1016.00 1016.19 1016.28 1016.27 1016.15 1015.95 1015.67 1015.36 1015.05 1014.77 1014.54 1014.39 1014.30 1014.28 1014.29 1014.32 1014.35 1014.35 1014.32 1014.25 1014.14 1013.99 1013.82 1013.61 1013.39 1013.15 1012.91 1012.66 1012.41 1012.17 1011.94 1011.70 1011.48 1011.25 1011.03 1010.82
1012.31 1013.05 1013.68 1014.21 1014.66 1015.04 1015.39 1015.70 1015.98 1016.20 1016.35 1016.41 1016.34 1016.17 1015.89 1015.55 1015.18 1014.84 1014.55 1014.33 1014.21 1014.16 1014.17 1014.20 1014.24 1014.25 1014.22 1014.16 1014.06 1013.92 1013.76 1013.60 1013.43 1013.25 1013.07 1012.88 1012.68 1012.46 1012.23 1011.98 1011.72 1011.46 1011.21 1010.97
1012.97 1013.55 1014.02 1014.38 1014.68 1014.96 1015.25 1015.55 1015.86 1016.16 1016.40 1016.53 1016.54 1016.41 1016.15 1015.78 1015.37 1014.96 1014.60 1014.32 1014.14 1014.05 1014.03 1014.05 1014.08 1014.10 1014.07 1014.02 1013.93 1013.82 1013.71 1013.61 1013.51 1013.42 1013.32 1013.20 1013.06 1012.88 1012.65 1012.39 1012.11 1011.82 1011.54 1011.28
1013.36 1013.79 1014.10 1014.33 1014.53 1014.74 1015.01 1015.34 1015.73 1016.12 1016.46 1016.69 1016.78 1016.69 1016.44 1016.05 1015.59 1015.11 1014.68 1014.33 1014.08 1013.94 1013.89 1013.89 1013.91 1013.91 1013.90 1013.85 1013.79 1013.72 1013.67 1013.63 1013.62 1013.61 1013.60 1013.57 1013.49 1013.35 1013.14 1012.89 1012.59 1012.28 1011.97 1011.69
1013.47 1013.77 1013.96 1014.10 1014.24 1014.45 1014.74 1015.15 1015.62 1016.12 1016.57 1016.90 1017.05 1017.00 1016.74 1016.32 1015.80 1015.26 1014.75 1014.32 1014.02 1013.83 1013.74 1013.72 1013.73 1013.73 1013.73 1013.70 1013.66 1013.64 1013.64 1013.67 1013.73 1013.81 1013.88 1013.92 1013.90 1013.80 1013.62 1013.37 1013.07 1012.74 1012.42 1012.13
1013.34 1013.54 1013.66 1013.76 1013.90 1014.14 1014.51 1015.00 1015.59 1016.20 1016.74 1017.14 1017.33 1017.29 1017.02 1016.55 1015.97 1015.36 1014.78 1014.29 1013.94 1013.71 1013.60 1013.57 1013.58 1013.60 1013.60 1013.60 1013.59 1013.60 1013.64 1013.73 1013.85 1013.99 1014.12 1014.21 1014.23 1014.17 1014.01 1013.77 1013.47 1013.14 1012.81 1012.51
1013.06 1013.20 1013.29 1013.39 1013.57 1013.88 1014.34 1014.94 1015.62 1016.31 1016.92 1017.36 1017.57 1017.51 1017.20 1016.69 1016.05 1015.37 1014.74 1014.21 1013.83 1013.59 1013.48 1013.46 1013.49 1013.53 1013.56 1013.57 1013.59 1013.63 1013.69 1013.81 1013.96 1014.13 1014.30 1014.42 1014.47 1014.43 1014.29 1014.06 1013.76 1013.43 1013.10 1012.79
1012.72 1012.83 1012.93 1013.07 1013.31 1013.69 1014.24 1014.92 1015.67 1016.42 1017.06 1017.50 1017.68 1017.59 1017.23 1016.66 1015.97 1015.26 1014.60 1014.07 1013.69 1013.47 1013.39 1013.41 1013.47 1013.54 1013.60 1013.64 1013.68 1013.73 1013.81 1013.93 1014.08 1014.26 1014.43 1014.56 1014.62 1014.58 1014.45 1014.23 1013.94 1013.61 1013.28 1012.97
1012.40 1012.52 1012.64 1012.82 1013.12 1013.57 1014.17 1014.90 1015.68 1016.43 1017.05 1017.45 1017.59 1017.44 1017.04 1016.43 1015.72 1015.00 1014.36 1013.85 1013.52 1013.35 1013.32 1013.40 1013.51 1013.63 1013.73 1013.80 1013.85 1013.91 1013.98 1014.09 1014.23 1014.39 1014.54 1014.66 1014.71 1014.67 1014.54 1014.32 1014.04 1013.72 1013.39 1013.09
1012.16 1012.29 1012.44 1012.66 1013.00 1013.48 1014.10 1014.82 1015.57 1016.27 1016.82 1017.16 1017.23 1017.03 1016.59 1015.97 1015.27 1014.58 1013.99 1013.55 1013.30 1013.21 1013.27 1013.41 1013.60 1013.77 1013.91 1014.01 1014.09 1014.14 1014.21 1014.30 1014.41 1014.54 1014.67 1014.76 1014.79 1014.75 1014.61 1014.40 1014.13 1013.82 1013.51 1013.21
1012.02 1012.16 1012.33 1012.57 1012.91 1013.38 1013.96 1014.62 1015.29 1015.89 1016.35 1016.59 1016.59 1016.34 1015.88 1015.28 1014.63 1014.02 1013.52 1013.19 1013.03 1013.05 1013.20 1013.43 1013.68 1013.92 1014.11 1014.25 1014.34 1014.40 1014.46 1014.54 1014.63 1014.74 1014.83 1014.90 1014.92 1014.86 1014.72 1014.51 1014.26 1013.97 1013.68 1013.40
1011.95 1012.11 1012.29 1012.53 1012.84 1013.25 1013.75 1014.30 1014.84 1015.31 1015.64 1015.79 1015.71 1015.43 1014.98 1014.43 1013.86 1013.36 1012.98 1012.77 1012.73 1012.86 1013.10 1013.42 1013.74 1014.04 1014.27 1014.45 1014.57 1014.65 1014.72 1014.79 1014.87 1014.96 1015.04 1015.09 1015.09 1015.02 1014.89 1014.69 1014.45 1014.19 1013.92 1013.66
1011.95 1012.13 1012.31 1012.52 1012.77 1013.10 1013.48 1013.89 1014.28 1014.60 1014.80 1014.83 1014.69 1014.40 1013.98 1013.50 1013.03 1012.65 1012.40 1012.32 1012.41 1012.64 1012.97 1013.36 1013.74 1014.09 1014.37 1014.59 1014.74 1014.86 1014.95 1015.04 1015.12 1015.21 1015.28 1015.32 1015.31 1015.24 1015.11 1014.93 1014.71 1014.46 1014.22 1013.98
1012.02 1012.21 1012.38 1012.55 1012.74 1012.96 1013.21 1013.47 1013.69 1013.85 1013.91 1013.85 1013.65 1013.35 1012.97 1012.57 1012.21 1011.96 1011.84 1011.88 1012.07 1012.39 1012.80 1013.24 1013.68 1014.07 1014.40 1014.65 1014.85 1015.01 1015.13 1015.25 1015.35 1015.45 1015.52 1015.56 1015.55 1015.48 1015.35 1015.18 1014.97 1014.75 1014.52 1014.31
1012.15 1012.36 1012.52 1012.66 1012.78 1012.90 1013.01 1013.11 1013.18 1013.18 1013.11 1012.95 1012.70 1012.38 1012.04 1011.72 1011.47 1011.33 1011.32 1011.46 1011.75 1012.13 1012.59 1013.08 1013.55 1013.98 1014.35 1014.65 1014.89 1015.10 1015.27 1015.42 1015.55 1015.67 1015.75 1015.79 1015.77 1015.70 1015.57 1015.40 1015.20 1014.99 1014.78 1014.58
1012.37 1012.59 1012.75 1012.86 1012.92 1012.94 1012.93 1012.89 1012.80 1012.66 1012.47 1012.21 1011.91 1011.58 1011.27 1011.01 1010.84 1010.79 1010.87 1011.09 1011.43 1011.87 1012.36 1012.88 1013.38 1013.84 1014.24 1014.59 1014.88 1015.14 1015.36 1015.56 1015.72 1015.85 1015.94 1015.98 1015.96 1015.87 1015.74 1015.56 1015.36 1015.16 1014.95 1014.76
1012.65 1012.89 1013.06 1013.14 1013.15 1013.10 1012.99 1012.82 1012.60 1012.33 1012.02 1011.68 1011.32 1010.97 1010.67 1010.44 1010.33 1010.34 1010.48 1010.75 1011.14 1011.61 1012.12 1012.66 1013.18 1013.66 1014.11 1014.50 1014.85 1015.16 1015.43 1015.66 1015.86 1016.00 1016.09 1016.12 1016.09 1015.99 1015.84 1015.66 1015.45 1015.24 1015.03 1014.83
1012.98 1013.24 1013.40 1013.47 1013.45 1013.34 1013.15 1012.88 1012.55 1012.17 1011.75 1011.32 1010.90 1010.52 1010.21 1010.01 1009.92 1009.97 1010.15 1010.46 1010.87 1011.36 1011.89 1012.44 1012.98 1013.50 1013.98 1014.41 1014.81 1015.17 1015.48 1015.75 1015.96 1016.12 1016.21 1016.23 1016.18 1016.06 1015.89 1015.69 1015.47 1015.25 1015.04 1014.84
1013.30 1013.57 1013.73 1013.79 1013.75 1013.59 1013.33 1012.99 1012.57 1012.09 1011.59 1011.09 1010.61 1010.19 1009.87 1009.66 1009.59 1009.66 1009.86 1010.19 1010.62 1011.13 1011.68 1012.25 1012.81 1013.36 1013.87 1014.35 1014.78 1015.18 1015.53 1015.82 1016.05 1016.21 1016.29 1016.29 1016.23 1016.09 1015.91 1015.70 1015.48 1015.25 1015.04 1014.84
1013.57 1013.82 1013.98 1014.03 1013.96 1013.77 1013.47 1013.06 1012.58 1012.03 1011.46 1010.90 1010.38 1009.93 1009.58 1009.38 1009.31 1009.40 1009.62 1009.97 1010.42 1010.95 1011.52 1012.11 1012.70 1013.27 1013.81 1014.32 1014.78 1015.20 1015.57 1015.87 1016.11 1016.26 1016.34 1016.33 1016.25 1016.11 1015.92 1015.71 1015.49 1015.28 1015.08 1014.88
1013.73 1013.96 1014.10 1014.13 1014.03 1013.82 1013.49 1013.05 1012.52 1011.93 1011.32 1010.71 1010.16 1009.70 1009.35 1009.14 1009.09 1009.19 1009.44 1009.82 1010.29 1010.84 1011.43 1012.04 1012.65 1013.24 1013.80 1014.32 1014.80 1015.23 1015.60 1015.90 1016.13 1016.28 1016.34 1016.33 1016.25 1016.11 1015.93 1015.74 1015.54 1015.35 1015.17 1015.00
1013.78 1013.96 1014.07 1014.07 1013.96 1013.73 1013.38 1012.92 1012.37 1011.77 1011.14 1010.52 1009.97 1009.50 1009.17 1008.98 1008.95 1009.08 1009.36 1009.76 1010.26 1010.83 1011.44 1012.07 1012.69 1013.28 1013.85 1014.37 1014.84 1015.26 1015.61 1015.90 1016.11 1016.24 1016.30 1016.29 1016.21 1016.09 1015.93 1015.77 1015.61 1015.45 1015.31 1015.17
1013.73 1013.86 1013.92 1013.89 1013.76 1013.52 1013.17 1012.71 1012.17 1011.57 1010.95 1010.36 1009.82 1009.38 1009.07 1008.92 1008.93 1009.09 1009.40 1009.83 1010.36 1010.95 1011.57 1012.20 1012.82 1013.40 1013.94 1014.44 1014.88 1015.27 1015.59 1015.84 1016.02 1016.14 1016.19 1016.17 1016.11 1016.02 1015.90 1015.78 1015.66 1015.55 1015.46 1015.36
1013.64 1013.71 1013.72 1013.67 1013.52 1013.27 1012.93 1012.48 1011.97 1011.40 1010.82 1010.26 1009.77 1009.37 1009.11 1009.00 1009.05 1009.25 1009.59 1010.05 1010.59 1011.19 1011.81 1012.42 1013.02 1013.57 1014.08 1014.53 1014.92 1015.25 1015.52 1015.73 1015.88 1015.97 1016.00 1015.99 1015.95 1015.88 1015.80 1015.72 1015.66 1015.61 1015.56 1015.51
1013.56 1013.58 1013.55 1013.46 1013.31 1013.06 1012.73 1012.32 1011.84 1011.32 1010.78 1010.28 1009.84 1009.50 1009.28 1009.22 1009.31 1009.54 1009.91 1010.38 1010.93 1011.52 1012.12 1012.71 1013.26 1013.77 1014.22 1014.61 1014.94 1015.20 1015.41 1015.57 1015.67 1015.73 1015.75 1015.73 1015.70 1015.66 1015.62 1015.58 1015.57 1015.56 1015.57 1015.56
1013.56 1013.52 1013.46 1013.35 1013.18 1012.95 1012.64 1012.26 1011.82 1011.35 1010.88 1010.43 1010.04 1009.75 1009.58 1009.56 1009.68 1009.93 1010.31 1010.77 1011.31 1011.88 1012.44 1012.99 1013.49 1013.94 1014.33 1014.65 1014.91 1015.11 1015.26 1015.36 1015.42 1015.44 1015.44 1015.42 1015.39 1015.36 1015.35 1015.35 1015.37 1015.40 1015.44 1015.48
Thickness
5833 5826 5819 5822 5827 5826 5823 5818 5814 5817 5826 5819 5814 5814 5818 5819 5815 5813 5811 5808 5805 5804 5806 5804 5801 5798 5793 5789 5785 5782 5779 5777 5775 5774 5773 5771 5770 5771 5770 5770 5767 5766 5765 5765
5820 5817 5828 5833 5830 5824 5819 5813 5814 5817 5823 5818 5814 5815 5822 5821 5817 5818 5815 5812 5811 5808 5806 5803 5801 5798 5795 5790 5786 5783 5780 5779 5777 5775 5773 5772 5771 5772 5772 5770 5767 5766 5765 5765
5813 5824 5832 5825 5820 5816 5816 5814 5814 5811 5816 5820 5814 5811 5816 5821 5822 5822 5821 5820 5818 5813 5809 5805 5802 5799 5797 5792 5788 5787 5783 5781 5778 5777 5775 5773 5771 5771 5771 5769 5768 5766 5765 5764
5817 5826 5823 5819 5817 5817 5809 5822 5819 5814 5809 5809 5811 5798 5813 5820 5817 5818 5820 5821 5820 5818 5815 5811 5806 5802 5799 5797 5794 5789 5785 5782 5780 5777 5776 5774 5771 5769 5769 5769 5768 5766 5765 5764
5813 5820 5816 5813 5819 5821 5817 5824 5820 5816 5811 5810 5812 5804 5811 5821 5815 5818 5822 5823 5823 5822 5819 5814 5811 5807 5804 5801 5797 5793 5788 5784 5781 5779 5776 5773 5773 5772 5772 5770 5767 5765 5766 5764
5819 5827 5824 5821 5826 5826 5822 5817 5814 5815 5815 5795 5804 5801 5801 5819 5818 5823 5826 5826 5825 5825 5822 5818 5815 5811 5807 5804 5801 5797 5790 5785 5783 5780 5778 5775 5773 5771 5770 5768 5766 5766 5767 5765
5804 5814 5823 5826 5815 5818 5817 5805 5793 5790 5792 5792 5810 5803 5804 5823 5828 5827 5825 5826 5828 5826 5823 5819 5815 5810 5807 5804 5801 5798 5792 5786 5784 5781 5779 5777 5774 5772 5769 5769 5767 5766 5767 5765
5792 5795 5813 5820 5816 5811 5812 5810 5789 5779 5785 5798 5804 5798 5813 5829 5831 5831 5830 5829 5828 5826 5824 5820 5817 5813 5809 5806 5802 5798 5793 5788 5785 5782 5780 5778 5776 5775 5774 5771 5770 5768 5767 5766
5797 5796 5816 5820 5824 5819 5807 5808 5817 5804 5799 5793 5801 5806 5815 5826 5825 5827 5827 5826 5825 5825 5823 5821 5819 5815 5811 5808 5803 5800 5794 5789 5785 5782 5780 5778 5776 5775 5774 5771 5769 5769 5766 5765
5805 5791 5805 5813 5817 5815 5818 5816 5806 5797 5778 5777 5790 5796 5801 5809 5814 5820 5822 5822 5823 5823 5822 5820 5818 5815 5812 5809 5805 5802 5796 5790 5786 5783 5781 5779 5776 5775 5773 5771 5768 5766 5764 5762
5806 5791 5794 5801 5798 5801 5803 5804 5802 5801 5795 5784 5778 5793 5817 5813 5815 5816 5819 5821 5820 5820 5820 5818 5816 5814 5811 5808 5805 5800 5795 5790 5786 5784 5781 5779 5777 5775 5772 5769 5767 5765 5763 5760
5799 5796 5787 5794 5807 5811 5809 5805 5802 5788 5783 5788 5788 5793 5821 5818 5819 5819 5818 5818 5819 5818 5818 5817 5814 5810 5807 5804 5802 5798 5795 5791 5787 5784 5781 5778 5776 5774 5772 5769 5767 5764 5762 5760
5791 5785 5771 5776 5786 5797 5797 5801 5803 5802 5794 5788 5783 5791 5816 5815 5815 5816 5814 5814 5813 5812 5812 5811 5808 5805 5802 5800 5798 5796 5793 5790 5787 5784 5781 5778 5775 5772 5770 5768 5765 5763 5760 5758
5788 5781 5776 5773 5782 5792 5788 5793 5797 5795 5787 5787 5789 5794 5803 5805 5805 5807 5808 5809 5810 5807 5805 5804 5801 5799 5797 5795 5794 5792 5790 5790 5787 5783 5780 5776 5773 5770 5769 5767 5764 5761 5758 5755
5783 5772 5776 5782 5788 5789 5787 5789 5790 5789 5793 5789 5792 5794 5799 5801 5802 5803 5803 5804 5804 5802 5800 5799 5797 5795 5793 5792 5790 5789 5787 5786 5784 5780 5777 5774 5771 5769 5766 5764 5761 5758 5756 5753
5773 5766 5768 5767 5776 5779 5776 5784 5786 5786 5788 5788 5789 5788 5801 5802 5802 5798 5798 5797 5797 5797 5797 5796 5794 5792 5790 5788 5787 5785 5783 5781 5779 5776 5774 5771 5768 5765 5762 5759 5757 5754 5751 5749
5765 5759 5756 5759 5767 5765 5762 5779 5781 5782 5786 5786 5780 5787 5793 5791 5790 5790 5792 5792 5791 5793 5793 5792 5791 5789 5787 5786 5784 5782 5780 5777 5774 5772 5769 5767 5764 5761 5758 5756 5752 5749 5746 5744
5753 5750 5753 5755 5751 5738 5769 5786 5784 5779 5780 5786 5784 5786 5786 5786 5788 5791 5791 5788 5786 5787 5788 5788 5787 5786 5785 5783 5780 5778 5776 5772 5770 5767 5764 5762 5759 5756 5754 5750 5747 5744 5742 5740
5751 5745 5747 5748 5744 5750 5764 5772 5774 5768 5767 5779 5777 5777 5780 5783 5782 5782 5786 5785 5783 5783 5783 5783 5784 5784 5781 5778 5775 5772 5769 5767 5764 5761 5759 5757 5755 5751 5748 5745 5742 5739 5737 5735
5740 5741 5741 5740 5734 5735 5757 5769 5773 5765 5755 5769 5770 5768 5769 5770 5766 5770 5775 5776 5776 5777 5777 5777 5778 5777 5773 5770 5768 5764 5762 5759 5757 5756 5754 5752 5750 5747 5744 5741 5737 5735 5732 5730
5728 5728 5731 5733 5733 5747 5756 5761 5761 5743 5747 5760 5762 5761 5761 5759 5761 5764 5766 5766 5768 5768 5769 5769 5768 5767 5765 5763 5761 5756 5754 5752 5751 5750 5748 5746 5744 5742 5739 5736 5733 5730 5727 5724
5724 5726 5723 5728 5726 5733 5747 5751 5744 5744 5751 5754 5754 5754 5753 5753 5754 5754 5754 5755 5756 5757 5758 5759 5757 5756 5756 5755 5752 5747 5745 5745 5744 5742 5739 5737 5736 5736 5735 5730 5726 5724 5721 5718
5720 5724 5729 5726 5726 5731 5739 5739 5740 5742 5742 5744 5746 5746 5746 5745 5744 5744 5744 5744 5746 5747 5748 5748 5748 5746 5746 5745 5744 5740 5738 5738 5735 5732 5730 5729 5728 5727 5726 5723 5720 5718 5716 5714
5711 5713 5715 5714 5721 5725 5728 5730 5732 5734 5735 5738 5739 5739 5739 5736 5736 5735 5735 5734 5735 5737 5738 5738 5738 5736 5735 5735 5734 5733 5730 5729 5726 5724 5723 5721 5720 5719 5718 5716 5716 5714 5711 5708
5701 5703 5704 5703 5709 5715 5719 5721 5723 5726 5728 5729 5730 5731 5730 5729 5727 5727 5726 5726 5727 5727 5728 5728 5727 5726 5725 5725 5724 5723 5721 5719 5718 5716 5715 5714 5713 5712 5709 5708 5706 5705 5702 5699
5697 5696 5696 5698 5703 5705 5707 5712 5716 5715 5717 5718 5719 5719 5720 5720 5719 5719 5718 5718 5718 5717 5717 5717 5717 5716 5715 5715 5713 5713 5712 5711 5708 5707 5706 5707 5706 5704 5704 5702 5699 5695 5692 5688